This demonstration page uses our WeatherBlox Daily Observations layout. Learn more.

Left ArrowRight Arrow

39.51506, -84.39828

Hourly Observations for May 24, 2019

Temp ( °F °C ) Dew Point ( °F °C ) Humidity (%) Winds ( mph kmh ) Pressure ( in mb ) Visibility ( mi km ) Precip ( " mm )
12:15 am 00:15 Clear with Mist and Fog 66 18.9 66 18.7 99 99 Calm 30.08 1019 4 6 0.00 0.00
12:35 am 00:35 Mostly Cloudy with Mist and Fog 66 18.7 65 18.6 99 99 Calm 30.08 1019 4 6 0.00 0.00
12:55 am 00:55 Mostly Cloudy with Mist and Fog 66 18.9 66 18.7 99 99 Calm 30.08 1019 4 6 0.00 0.00
1:15 am 01:15 Mostly Cloudy with Mist and Fog 66 18.9 66 18.7 99 99 Calm 30.08 1019 7 11 0.00 0.00
1:35 am 01:35 Cloudy 67 19.4 67 19.2 99 99 Calm 30.09 1019 10 16 0.00 0.00
1:55 am 01:55 Mostly Cloudy 66 19 66 18.8 99 99 Calm 30.09 1019 7 11 0.00 0.00
2:15 am 02:15 Cloudy with Mist and Fog 66 18.9 66 18.7 99 99 Calm 30.09 1019 5 8 0.00 0.00
2:35 am 02:35 Cloudy with Mist and Fog 66 19 66 18.8 99 99 Calm 30.08 1019 7 11 0.00 0.00
2:55 am 02:55 Mostly Cloudy with Mist and Fog 66 19 66 18.8 99 99 Calm 30.09 1019 7 11 0.00 0.00
3:15 am 03:15 Clear with Mist and Fog 65 18.6 65 18.4 99 99 Calm 30.08 1019 5 8 0.00 0.00
3:35 am 03:35 Partly Cloudy with Mist and Fog 64 17.8 64 17.6 99 99 Calm 30.08 1019 3 5 0.00 0.00
3:55 am 03:55 Cloudy with Mist and Fog 64 18 64 17.8 99 99 Calm 30.09 1019 5 8 0.00 0.00
4:15 am 04:15 Mostly Cloudy with Mist and Fog 65 18.1 64 17.9 99 99 Calm 30.09 1019 1 2 0.00 0.00
4:35 am 04:35 Clear with Mist and Fog 63 17.2 63 17.1 99 99 Calm 30.09 1019 2 3 0.00 0.00
4:55 am 04:55 Clear with Mist and Fog 62 16.8 62 16.7 99 99 Calm 30.10 1019 3 4 0.00 0.00
5:15 am 05:15 Clear 62 16.7 62 16.6 99 99 Calm 30.11 1020 10 16 0.00 0.00
5:35 am 05:35 Partly Cloudy 62 16.9 62 16.7 99 99 Calm 30.11 1020 10 16 0.00 0.00
5:55 am 05:55 Partly Cloudy 61 15.9 60 15.7 99 99 NNE 3 6 30.12 1020 7 11 0.00 0.00
6:15 am 06:15 Clear with Mist and Fog 61 16 60 15.8 99 99 NNE 5 7 30.11 1020 7 11 0.00 0.00
6:35 am 06:35 Sunny with Mist and Fog 61 16 60 15.8 99 99 Calm 30.12 1020 4 6 0.00 0.00
6:55 am 06:55 Sunny with Mist and Fog 61 16.2 61 16 99 99 NNE 3 6 30.12 1020 5 8 0.00 0.00
7:15 am 07:15 Sunny 62 16.9 62 16.7 99 99 Calm 30.13 1020 10 16 0.00 0.00
7:35 am 07:35 Sunny 64 17.8 64 17.6 99 99 Calm 30.13 1020 7 11 0.00 0.00
7:55 am 07:55 Sunny 66 19.1 65 18.6 97 97 E 5 7 30.13 1020 7 11 0.00 0.00
8:15 am 08:15 Sunny 68 19.9 65 18.1 89 89 Calm 30.14 1021 10 16 0.00 0.00
8:35 am 08:35 Sunny 69 20.6 64 17.7 84 84 NE 3 6 30.13 1020 10 16 0.00 0.00
8:55 am 08:55 Sunny 71 21.6 64 18 80 80 NE 3 6 30.13 1020 10 16 0.00 0.00
9:15 am 09:15 Sunny 72 22.2 62 16.6 71 71 ESE 3 6 30.13 1020 10 16 0.00 0.00
9:35 am 09:35 Partly Cloudy 73 23 63 17.2 70 70 SE 5 7 30.13 1020 10 16 0.00 0.00
9:55 am 09:55 Mostly Cloudy 73 22.9 64 17.5 72 72 S 6 9 30.12 1020 10 16 0.00 0.00
10:15 am 10:15 Sunny 75 23.9 64 17.7 68 68 SSW 9 15 30.11 1019 10 16 0.00 0.00
10:35 am 10:35 Partly Cloudy 74 23.5 64 17.9 71 71 SW 5 7 30.11 1020 10 16 0.00 0.00
10:55 am 10:55 Cloudy 75 24.1 64 18 69 69 Calm 30.12 1020 10 16 0.00 0.00
11:15 am 11:15 Mostly Cloudy 76 24.5 66 18.9 71 71 SW 5 7 30.10 1019 10 16 0.00 0.00
11:35 am 11:35 Cloudy 76 24.7 65 18.5 69 69 Calm 30.11 1020 10 16 0.00 0.00
11:55 am 11:55 Mostly Cloudy 78 25.3 66 19 68 68 WSW 3 6 30.11 1020 10 16 0.00 0.00
12:15 pm 12:15 Mostly Cloudy with Nearby Thunderstorms 78 25.6 66 18.8 66 66 NNW 3 6 30.11 1020 10 16 0.00 0.00
12:35 pm 12:35 Cloudy 78 25.6 67 19.5 69 69 ENE 6 9 30.11 1020 10 16 0.00 0.00
12:55 pm 12:55 Mostly Cloudy 78 25.4 68 20 72 72 ENE 8 13 30.11 1020 10 16 0.00 0.00
1:15 pm 13:15 Cloudy 75 23.9 64 17.6 68 68 NE 13 20 30.13 1020 10 16 0.00 0.00
1:35 pm 13:35 Mostly Cloudy 74 23.6 62 16.5 65 65 NE 12 19 30.11 1020 10 16 0.00 0.00
1:55 pm 13:55 Sunny 76 24.6 64 17.5 65 65 ENE 9 15 30.10 1019 10 16 0.00 0.00
2:15 pm 14:15 Partly Cloudy 78 25.6 64 18 63 63 NE 9 15 30.08 1019 10 16 0.00 0.00
2:35 pm 14:35 Partly Cloudy 80 26.4 66 18.7 63 63 ENE 7 11 30.08 1019 10 16 0.00 0.00
2:55 pm 14:55 Sunny 80 26.7 66 19.1 63 63 ENE 7 11 30.08 1019 10 16 0.00 0.00
3:15 pm 15:15 Sunny 81 27.3 68 19.8 64 64 ENE 7 11 30.08 1019 10 16 0.00 0.00
3:35 pm 15:35 Sunny 82 27.7 67 19.3 60 60 ENE 5 7 30.08 1019 10 16 0.00 0.00
3:55 pm 15:55 Sunny 82 28 67 19.4 60 60 Calm 30.08 1018 10 16 0.00 0.00
4:15 pm 16:15 Sunny 83 28.2 67 19.7 60 60 Calm 30.07 1018 10 16 0.00 0.00
4:35 pm 16:35 Sunny 84 28.9 69 20.5 61 61 ENE 3 6 30.06 1018 10 16 0.00 0.00
4:55 pm 16:55 Partly Cloudy 84 29 69 20.5 60 60 ENE 3 6 30.06 1018 10 16 0.00 0.00
5:15 pm 17:15 Sunny 84 29.1 69 20.6 60 60 Calm 30.06 1018 10 16 0.00 0.00
5:35 pm 17:35 Sunny 85 29.3 70 21 61 61 ENE 3 6 30.06 1018 10 16 0.00 0.00
5:55 pm 17:55 Sunny 85 29.4 70 21.1 61 61 ENE 5 7 30.05 1018 10 16 0.00 0.00
6:15 pm 18:15 Sunny 85 29.3 70 20.9 61 61 NE 3 6 30.04 1017 10 16 0.00 0.00
6:35 pm 18:35 Sunny 85 29.4 70 21.1 61 61 W 3 6 30.03 1017 10 16 0.00 0.00
6:55 pm 18:55 Sunny 85 29.2 69 20.4 59 59 SW 7 11 30.02 1017 10 16 0.00 0.00
7:15 pm 19:15 Sunny 84 28.9 68 20.2 59 59 SW 3 6 30.01 1016 10 16 0.00 0.00
7:35 pm 19:35 Sunny 83 28.6 70 21 64 64 WSW 5 7 30.00 1016 10 16 0.00 0.00
7:55 pm 19:55 Sunny 82 27.5 70 21 68 68 SSW 6 9 30.00 1016 10 16 0.00 0.00
8:15 pm 20:15 Sunny 81 27.4 68 19.9 64 64 SW 7 11 30.00 1016 10 16 0.00 0.00
8:35 pm 20:35 Sunny 80 26.9 66 19.1 62 62 SW 8 13 29.99 1016 10 16 0.00 0.00
8:55 pm 20:55 Clear 78 25.3 67 19.2 69 69 WSW 7 11 29.99 1016 10 16 0.00 0.00
9:15 pm 21:15 Clear 74 23.1 67 19.7 81 81 W 3 6 30.00 1016 10 16 0.00 0.00
9:35 pm 21:35 Clear 71 21.6 67 19.6 88 88 W 5 7 30.00 1016 10 16 0.00 0.00
9:55 pm 21:55 Clear 71 21.6 68 20.1 91 91 Calm 30.00 1016 10 16 0.00 0.00
10:15 pm 22:15 Clear 69 20.3 67 19.4 95 95 Calm 30.01 1016 10 16 0.00 0.00
10:35 pm 22:35 Clear 68 20.1 67 19.2 95 95 NNE 3 6 30.01 1016 10 16 0.00 0.00
10:55 pm 22:55 Clear 67 19.7 66 19.1 96 96 Calm 30.02 1016 10 16 0.00 0.00
11:15 pm 23:15 Clear 68 20 67 19.3 96 96 Calm 30.01 1016 10 16 0.00 0.00
11:35 pm 23:35 Clear 67 19.2 66 18.7 97 97 Calm 30.03 1017 10 16 0.00 0.00
11:55 pm 23:55 Clear 67 19.2 65 18.1 93 93 Calm 30.04 1017 10 16 0.00 0.00

Powered by AerisWeather